This demonstration page uses our WeatherBlox Daily Observations layout. Learn more.

Hourly Observations for January 28, 2016

Temp ( °F °C ) Dew Point ( °F °C ) Humidity (%) Winds ( mph kmh ) Pressure ( in mb ) Visibility ( mi km ) Precip ( " mm )
12:15 am 00:15 Clear 39 4 28 -2 65 65 W 10 17 30.12 1020 10 16.09344 0 0
12:35 am 00:35 Clear 37 3 28 -2 70 70 W 9 15 30.15 1021 10 16.09344 0 0
12:55 am 00:55 Clear 36 2 28 -2 75 75 W 9 15 30.15 1021 10 16.09344 0 0
1:15 am 01:15 Clear 36 2 28 -2 75 75 W 8 13 30.15 1021 10 16.09344 0 0
1:35 am 01:35 Clear 34 1 27 -3 75 75 W 7 11 30.15 1021 10 16.09344 0 0
1:55 am 01:55 Clear 36 2 28 -2 75 75 W 7 11 30.12 1020 10 16.09344 0 0
2:15 am 02:15 Clear 34 1 28 -2 81 81 W 8 13 30.12 1020 10 16.09344 0 0
2:35 am 02:35 Clear 34 1 28 -2 81 81 W 8 13 30.12 1020 10 16.09344 0 0
2:55 am 02:55 Clear 34 1 28 -2 81 81 WNW 7 11 30.12 1020 10 16.09344 0 0
3:15 am 03:15 Clear 32 0 28 -2 87 87 WNW 6 9 30.12 1020 10 16.09344 0 0
3:35 am 03:35 Clear 32 0 28 -2 87 87 WNW 7 11 30.12 1020 10 16.09344 0 0
3:55 am 03:55 Clear 32 0 28 -2 87 87 WNW 7 11 30.12 1020 10 16.09344 0 0
4:15 am 04:15 Clear 32 0 27 -3 80 80 WNW 7 11 30.12 1020 10 16.09344 0 0
4:35 am 04:35 Clear 32 0 27 -3 80 80 WNW 8 13 30.12 1020 10 16.09344 0 0
4:55 am 04:55 Clear 34 1 27 -3 75 75 WNW 7 11 30.09 1019 10 16.09344 0 0
5:15 am 05:15 Clear 32 0 27 -3 80 80 W 8 13 30.09 1019 10 16.09344 0 0
5:35 am 05:35 Clear 34 1 27 -3 75 75 WNW 9 15 30.09 1019 10 16.09344 0 0
5:55 am 05:55 Clear 32 0 27 -3 80 80 W 9 15 30.09 1019 10 16.09344 0 0
6:15 am 06:15 Clear 32 0 27 -3 80 80 WNW 7 11 30.09 1019 10 16.09344 0 0
6:35 am 06:35 Clear 32 0 27 -3 80 80 WNW 7 11 30.09 1019 10 16.09344 0 0
6:55 am 06:55 Clear 32 0 27 -3 80 80 WNW 8 13 30.09 1019 10 16.09344 0 0
7:15 am 07:15 Clear 32 0 27 -3 80 80 WNW 8 13 30.09 1019 10 16.09344 0 0
7:35 am 07:35 Clear 32 0 27 -3 80 80 WNW 7 11 30.09 1019 10 16.09344 0 0
7:55 am 07:55 Sunny 32 0 27 -3 80 80 WNW 8 13 30.09 1019 10 16.09344 0 0
8:15 am 08:15 Sunny 32 0 27 -3 80 80 W 7 11 30.12 1020 10 16.09344 0 0
8:35 am 08:35 Sunny 32 0 27 -3 80 80 W 9 15 30.12 1020 10 16.09344 0 0
8:55 am 08:55 Sunny 34 1 27 -3 75 75 W 9 15 30.12 1020 10 16.09344 0 0
9:15 am 09:15 Sunny 36 2 28 -2 75 75 WNW 8 13 30.12 1020 10 16.09344 0 0
9:35 am 09:35 Sunny 37 3 30 -1 75 75 WNW 9 15 30.09 1019 10 16.09344 0 0
9:55 am 09:55 Sunny 41 5 30 -1 66 66 WNW 8 13 30.09 1019 10 16.09344 0 0
10:15 am 10:15 Sunny 43 6 30 -1 61 61 WNW 8 13 30.09 1019 10 16.09344 0 0
10:35 am 10:35 Sunny 45 7 32 0 61 61 NW 8 13 30.06 1018 10 16.09344 0 0
11:15 am 11:15 Sunny 46 8 32 0 57 57 NW 13 20 30.06 1018 10 16.09344 0 0
11:35 am 11:35 Sunny 48 9 32 0 54 54 NW 12 19 30.06 1018 10 16.09344 0 0
11:55 am 11:55 Sunny 48 9 32 0 54 54 NW 9 15 30.06 1018 10 16.09344 0 0
12:15 pm 12:15 Sunny 50 10 32 0 50 50 NNW 8 13 30.03 1017 10 16.09344 0 0
12:35 pm 12:35 Sunny 50 10 32 0 50 50 NW 10 17 30 1016 10 16.09344 0 0
12:55 pm 12:55 Sunny 52 11 32 0 47 47 NW 12 19 30 1016 10 16.09344 0 0
1:15 pm 13:15 Sunny 52 11 32 0 47 47 NNW 10 17 30 1016 10 16.09344 0 0
1:35 pm 13:35 Sunny 52 11 32 0 47 47 NW 10 17 29.97 1015 10 16.09344 0 0
1:55 pm 13:55 Sunny 52 11 32 0 47 47 NNW 10 17 29.97 1015 10 16.09344 0 0
2:15 pm 14:15 Sunny 52 11 32 0 47 47 NW 7 11 29.97 1015 10 16.09344 0 0
2:35 pm 14:35 Sunny 52 11 32 0 47 47 NW 6 9 29.94 1014 10 16.09344 0 0
2:55 pm 14:55 Sunny 52 11 32 0 47 47 NNW 5 7 29.94 1014 10 16.09344 0 0
3:15 pm 15:15 Sunny 52 11 32 0 47 47 Calm 29.94 1014 10 16.09344 0 0
3:35 pm 15:35 Sunny 52 11 32 0 47 47 N 3 6 29.94 1014 10 16.09344 0 0
3:55 pm 15:55 Sunny 52 11 32 0 47 47 Calm 29.94 1014 10 16.09344 0 0
4:15 pm 16:15 Sunny 52 11 32 0 47 47 N 3 6 29.94 1014 10 16.09344 0 0
4:35 pm 16:35 Sunny 52 11 32 0 47 47 Calm 29.94 1014 10 16.09344 0 0
4:55 pm 16:55 Sunny 52 11 34 1 50 50 Calm 29.91 1013 10 16.09344 0 0
5:15 pm 17:15 Sunny 48 9 34 1 58 58 SE 6 9 29.91 1013 10 16.09344 0 0
5:35 pm 17:35 Sunny 46 8 32 0 57 57 SSE 6 9 29.94 1014 10 16.09344 0 0
5:55 pm 17:55 Clear 45 7 32 0 61 61 SSE 6 9 29.94 1014 10 16.09344 0 0
6:15 pm 18:15 Clear 45 7 32 0 61 61 S 6 9 29.94 1014 10 16.09344 0 0
6:35 pm 18:35 Clear 41 5 30 -1 66 66 S 6 9 29.97 1015 10 16.09344 0 0
6:55 pm 18:55 Clear 41 5 30 -1 66 66 S 7 11 29.97 1015 10 16.09344 0 0
7:15 pm 19:15 Clear 39 4 30 -1 70 70 S 6 9 29.97 1015 10 16.09344 0 0
7:35 pm 19:35 Clear 39 4 30 -1 70 70 S 6 9 29.97 1015 10 16.09344 0 0
7:55 pm 19:55 Clear 39 4 30 -1 70 70 S 7 11 29.97 1015 10 16.09344 0 0
8:15 pm 20:15 Clear 39 4 30 -1 70 70 S 8 13 29.97 1015 10 16.09344 0 0
8:35 pm 20:35 Clear 37 3 30 -1 75 75 S 7 11 29.97 1015 10 16.09344 0 0
8:55 pm 20:55 Clear 39 4 32 0 75 75 S 6 9 29.97 1015 10 16.09344 0 0
9:15 pm 21:15 Clear 39 4 32 0 75 75 S 8 13 29.94 1014 10 16.09344 0 0
9:35 pm 21:35 Clear 39 4 32 0 75 75 S 7 11 29.94 1014 10 16.09344 0 0
9:55 pm 21:55 Clear 39 4 30 -1 70 70 SSW 8 13 29.94 1014 10 16.09344 0 0
10:15 pm 22:15 Clear 39 4 30 -1 70 70 SSW 9 15 29.94 1014 10 16.09344 0 0
10:35 pm 22:35 Clear 37 3 30 -1 75 75 SSW 8 13 29.91 1013 10 16.09344 0 0
10:55 pm 22:55 Clear 39 4 30 -1 70 70 SSW 10 17 29.91 1013 10 16.09344 0 0
11:15 pm 23:15 Clear 39 4 32 0 75 75 SSW 10 17 29.91 1013 10 16.09344 0 0
11:35 pm 23:35 Clear 37 3 30 -1 75 75 SSW 7 11 29.91 1013 10 16.09344 0 0
11:55 pm 23:55 Clear 39 4 32 0 75 75 SSW 10 17 29.88 1012 10 16.09344 0 0

Powered by AerisWeather